This is the latest recevied weather packets stored in our database for station/object K6CEG. If no packets are shown the sender has not sent any weather packets the latest 10 day(s).
| Time | Temp. | Humidity | Pressure | Rain* | Wind** | Luminosity | Snow |
|---|---|---|---|---|---|---|---|
| 1787949744 | 38.89° C | 32% | 1013.4 hPa | 0 mm | - | 441 W/m² | - |
| 1787949443 | 38.89° C | 33% | 1013.4 hPa | 0 mm | - | 416 W/m² | - |
| 1787949138 | 38.89° C | 33% | 1013.6 hPa | 0 mm | - | 510 W/m² | - |
| 1787948835 | 38.89° C | 33% | 1013.5 hPa | 0 mm | - | 455 W/m² | - |
| 1787948534 | 38.33° C | 34% | 1013.7 hPa | 0 mm | - | 517 W/m² | - |
| 1787948229 | 38.33° C | 35% | 1013.8 hPa | 0 mm | - | 302 W/m² | - |
| 1787947928 | 39.44° C | 34% | 1013.6 hPa | 0 mm | - | 455 W/m² | - |
| 1787947623 | 39.44° C | 33% | 1013.7 hPa | 0 mm | - | 584 W/m² | - |
| 1787947322 | 38.89° C | 34% | 1013.9 hPa | 0 mm | - | 577 W/m² | - |
| 1787947022 | 38.89° C | 34% | 1013.7 hPa | 0 mm | - | 600 W/m² | - |
| 1787946721 | 38.33° C | 34% | 1013.6 hPa | 0 mm | - | 560 W/m² | - |
| 1787946421 | 37.78° C | 34% | 1013.7 hPa | 0 mm | - | 675 W/m² | - |
| 1787946120 | 37.78° C | 35% | 1014.1 hPa | 0 mm | - | 682 W/m² | - |
| 1787945815 | 37.22° C | 35% | 1014.1 hPa | 0 mm | - | 517 W/m² | - |
| 1787945516 | 37.78° C | 34% | 1014.3 hPa | 0 mm | - | 515 W/m² | - |
| 1787945211 | 37.22° C | 36% | 1014 hPa | 0 mm | - | 756 W/m² | - |
| 1787944910 | 37.22° C | 36% | 1014.3 hPa | 0 mm | - | 737 W/m² | - |
| 1787944608 | 37.22° C | 36% | 1014.3 hPa | 0 mm | - | 611 W/m² | - |
| 1787944304 | 37.78° C | 34% | 1014.1 hPa | 0 mm | - | 816 W/m² | - |
| 1787943999 | 37.22° C | 36% | 1014.4 hPa | 0 mm | - | 811 W/m² | - |
| 1787943695 | 36.67° C | 37% | 1014.3 hPa | 0 mm | - | 758 W/m² | - |
| 1787943390 | 37.22° C | 36% | 1014.4 hPa | 0 mm | - | 773 W/m² | - |
| 1787943084 | 37.78° C | 35% | 1014.5 hPa | 0 mm | - | 595 W/m² | - |
| 1787942780 | 37.22° C | 36% | 1014.6 hPa | 0 mm | - | 745 W/m² | - |
| 1787942480 | 36.11° C | 37% | 1014.7 hPa | 0 mm | - | 695 W/m² | - |
* Rain latest hour (hover to see other rain measurements)
** Current wind speed in m/s (hover to see current wind gust speed)